Hourly Data Report for July 12, 2021

KITCHENER/WATERLOO
ONTARIO
Current Station Operator: NAVCAN

43°27'39.000" N
80°22'43.000" W
321.60 m
6144239
71368
YKF

Download Data

Hourly Data (July 2021)
Hourly Data Report for July 12, 2021
TIME
LST
Temp Definition
°C
Dew Point Definition
°C
Rel Hum Definition
%
Precip. Amount Definition
mm

Wind Dir Definition
10's deg

Wind Spd Definition
km/h
Visibility Definition
km
Stn Press Definition
kPa
Hmdx Definition


Wind Chill Definition


Weather Definition


00:00 17.5 14.8 84 0.0 4 9 16.1 97.99     LegendNANA
01:00 17.2 15.4 89 0.0 4 8 16.1 98.00     LegendNANA
02:00 16.9 15.8 93 0.0 5 9 16.1 98.01     LegendNANA
03:00 15.8 15.3 97 0.0 7 9 11.3 98.03     LegendNANA
04:00 16.8 16.3 97 0.0 4 8 9.7 98.06     Fog
05:00 16.9 16.5 97 0.0 5 9 8.1 98.07     Fog
06:00 17.5 16.7 95 0.0 4 11 9.7 98.11     Fog
07:00 18.3 17.0 92 0.0 6 17 16.1 98.16     LegendNANA
08:00 19.6 16.8 84 0.0 6 21 16.1 98.20     LegendNANA
09:00 20.4 16.4 78 0.0 8 17 16.1 98.23 25   LegendNANA
10:00 21.1 16.9 76 0.0 8 22 16.1 98.22 26   LegendNANA
11:00 22.1 16.4 70 0.0 10 21 16.1 98.29 27   LegendNANA
12:00 21.7 16.2 71 0.0 8 21 16.1 98.30 26   LegendNANA
13:00 22.9 16.2 66 0.0 7 24 16.1 98.29 28   LegendNANA
14:00 23.4 16.8 66 0.0 8 22 16.1 98.27 29   LegendNANA
15:00 24.4 17.2 64 0.0 10 22 12.9 98.25 30   LegendNANA
16:00 23.7 16.8 65 0.0 8 28 16.1 98.21 29   LegendNANA
17:00 23.5 17.2 67 0.0 9 24 16.1 98.18 29   LegendNANA
18:00 22.4 16.3 68 0.0 8 18 16.1 98.19 27   LegendNANA
19:00 21.0 16.6 76 0.0 8 15 16.1 98.19 26   LegendNANA
20:00 20.0 16.4 80 0.0 10 15 16.1 98.18 25   LegendNANA
21:00 19.3 16.8 85 0.0 11 8 16.1 98.22     LegendNANA
22:00 18.6 17.1 91 0.0 12 9 16.1 98.20     Rain
23:00 18.4 17.6 95 0.0 11 9 16.1 98.21     LegendNANA

Notes on Data Quality.

Legend

  • E = Estimated
  • M = Missing
  • NA = Not Available*
  • [empty] = Indicates an unobserved value
Date modified: